GFSSW_con_sbcape_132.txt.gz
CAPE
6 5 5 11 32 36 34 33 21 21 21 19 22 24 25 22 17 0 0 0 0 0 0 0 0 0 0 0 0 0 0 0 0 0 0 0 0 0 0 0 0 50 43 266 491
5 6 5 3 0 17 19 28 40 34 9 26 27 31 17 19 1 1 0 0 0 0 0 0 0 0 0 0 0 0 0 0 0 0 0 0 0 0 0 0 0 0 0 1 507
7 11 13 13 15 26 21 7 8 29 38 37 39 36 34 15 0 0 0 0 0 0 0 0 0 0 0 0 0 0 0 0 0 0 0 0 0 0 0 0 0 0 32 930 686
19 17 25 33 28 27 11 1 1 11 24 50 36 37 43 16 0 0 0 0 0 0 0 0 0 0 0 0 0 0 0 0 0 0 0 0 0 0 0 0 0 0 355 0 0
43 42 46 46 43 40 27 2 7 1 7 21 33 23 34 18 0 0 0 0 0 0 0 0 0 0 0 0 0 0 0 0 0 0 0 0 0 0 0 0 0 0 0 0 0
49 38 53 56 53 56 52 48 19 5 0 7 41 52 36 20 0 0 0 0 0 0 0 0 0 0 0 0 0 0 0 0 0 0 0 0 0 0 0 0 0 0 0 2 144
33 37 55 41 44 63 64 57 40 20 5 3 8 62 52 5 0 0 0 0 0 0 0 0 0 0 0 0 0 0 0 0 0 0 0 0 0 0 0 0 0 0 0 0 0
38 42 32 17 14 37 56 75 52 28 21 20 30 53 44 0 0 0 0 0 0 0 0 0 0 0 0 0 0 0 0 0 0 0 0 0 0 0 0 0 0 0 0 0 0
21 39 47 24 21 27 52 47 6 8 11 39 13 38 15 0 0 0 0 0 0 0 0 0 0 0 0 0 0 0 0 0 0 0 0 0 0 0 0 0 0 0 0 0 0
42 46 45 44 34 61 49 38 0 0 1 7 26 43 0 0 0 0 0 0 0 0 0 0 0 0 0 0 0 0 0 0 0 0 0 0 0 0 0 0 0 0 0 0 0
46 48 46 49 52 51 26 7 0 0 0 0 0 0 0 0 0 0 0 0 0 0 0 0 0 0 0 0 0 0 0 0 0 0 0 0 0 0 0 0 0 0 0 0 0
37 30 39 48 46 36 14 10 0 0 1 0 0 1 0 0 0 0 0 0 0 0 0 0 0 0 0 0 0 0 0 0 0 0 0 0 0 0 0 0 0 0 0 0 0
48 43 32 48 56 3 0 0 0 10 36 0 0 0 0 0 0 0 0 0 0 0 0 0 0 0 0 0 0 0 0 0 0 13 26 28 1 0 0 0 0 0 0 0 0
28 34 47 56 11 0 0 0 0 6 26 0 1 14 2 3 2 0 0 0 0 0 0 0 0 0 0 0 0 0 0 0 0 34 38 60 13 0 0 0 0 0 0 0 0
23 36 50 48 23 5 0 0 0 7 11 0 26 26 13 0 0 0 0 0 0 0 0 0 0 0 0 0 0 0 0 0 0 6 22 20 0 0 0 0 0 0 0 0 0
19 22 30 12 3 0 0 0 0 63 0 1 33 7 0 5 0 0 0 0 7 0 0 0 0 0 0 0 0 0 0 0 0 0 0 0 0 0 0 0 0 0 0 0 0
18 13 7 4 1 0 0 0 13 0 0 13 25 1 11 14 0 0 3 5 27 0 0 0 0 0 0 0 0 0 0 0 0 3 0 0 0 0 0 0 0 0 0 0 0
5 0 0 0 0 0 0 0 12 0 0 0 1 23 14 10 0 0 35 7 3 0 0 0 0 0 0 0 0 0 0 0 0 0 0 0 0 0 0 0 0 0 0 0 0
0 0 0 0 1 0 9 15 0 0 0 2 5 9 10 0 0 0 2 0 0 0 0 0 0 0 0 0 0 0 0 0 0 0 0 0 0 0 0 0 0 0 0 0 0
0 0 0 0 0 4 9 2 0 0 1 1 7 24 3 3 0 0 4 4 0 0 0 0 0 0 0 0 0 0 0 0 0 1 0 2 21 0 6 0 0 0 0 13 231
0 0 0 0 5 21 12 25 2 0 10 18 26 7 11 7 0 0 0 18 0 0 0 0 0 0 0 0 0 0 0 0 0 0 0 0 0 0 0 0 0 0 0 301 251
0 0 0 0 11 3 6 25 19 6 0 0 24 8 11 10 0 0 0 46 0 0 0 0 0 0 0 0 0 0 0 0 0 0 10 0 0 0 0 0 0 0 334 238 64
2 0 0 0 1 4 14 19 21 17 12 12 12 11 14 4 4 0 16 38 0 0 0 0 0 0 0 0 0 0 0 0 2 39 35 0 0 4 0 1 0 115 94 0 2
6 5 0 0 3 9 12 17 12 0 12 27 10 8 8 4 1 4 91 56 8 0 262 6 0 0 0 0 0 0 0 0 14 1 8 5 13 0 14 19 0 0 0 0 0
0 0 4 3 1 7 15 12 10 7 0 18 9 3 12 11 1 0 0 9 22 128 1 1 69 114 30 12 55 2 0 2 16 0 5 42 44 21 32 5 0 0 0 0 0
2 15 6 5 0 6 6 5 10 2 3 19 14 5 3 5 6 1 0 0 0 0 11 10 34 42 3 0 19 69 120 165 246 112 85 90 115 0 1 4 0 0 0 0 0
0 2 5 0 0 5 3 8 2 5 2 15 7 1 1 1 4 0 1 0 0 0 32 48 1 0 0 0 21 33 21 45 59 114 71 20 42 0 17 21 4 0 0 0 0

GFSSW_con_sbcape_135.txt.gz
CAPE
16 13 7 7 9 5 1 6 11 23 8 17 18 26 19 21 22 0 0 0 0 0 0 0 0 0 0 0 0 0 0 0 0 0 0 0 0 0 0 0 0 0 3 47 1209
35 36 27 24 24 32 17 11 8 8 20 24 34 35 23 25 1 0 0 0 0 0 0 0 0 0 0 0 0 0 0 0 0 0 0 0 0 0 0 0 0 0 665 462 181
62 51 44 48 51 55 35 27 22 17 14 26 51 32 33 26 0 0 0 0 3 0 0 0 0 0 0 0 0 0 0 0 0 0 0 0 0 0 0 0 0 0 820 332 246
14 26 38 42 53 58 43 41 28 22 23 27 34 50 37 29 0 0 0 0 0 0 0 0 0 0 0 0 0 0 0 0 0 0 0 0 0 0 0 0 0 11 0 1 368
12 12 15 15 19 41 47 57 48 30 19 15 14 43 52 32 0 0 0 0 0 0 0 0 0 0 0 0 0 0 0 0 0 0 0 0 0 0 0 0 0 0 0 0 1
13 15 22 22 24 22 36 38 48 52 44 37 25 41 55 23 0 0 0 0 0 0 0 0 0 0 0 0 0 0 0 0 0 0 0 0 0 0 0 0 0 0 20 0 0
10 17 16 22 23 23 32 34 22 14 51 58 56 51 12 8 0 0 0 0 0 0 0 0 0 0 0 0 0 0 0 0 0 0 0 0 0 0 0 0 0 0 0 8 0
30 26 27 23 20 19 28 36 30 3 11 27 68 61 17 0 0 0 0 0 0 0 0 0 0 0 0 0 0 0 0 0 0 0 0 0 0 0 0 0 0 0 0 0 1
44 51 34 18 22 22 31 44 10 5 12 22 31 46 13 0 0 0 0 0 0 0 0 0 0 0 0 0 0 0 0 0 0 0 0 0 0 0 0 0 0 0 0 0 0
39 45 51 33 31 33 45 44 0 0 0 5 28 25 0 0 0 0 0 0 0 0 0 0 0 0 0 0 0 0 0 0 0 0 0 0 0 0 0 0 0 0 0 0 0
18 34 36 37 19 38 22 1 0 0 0 0 0 0 0 0 0 0 0 0 0 0 0 0 0 0 0 0 0 0 0 0 0 0 0 0 0 0 0 0 0 0 0 0 0
14 17 35 56 43 46 18 6 0 2 11 1 0 0 0 0 0 0 4 1 1 0 0 0 0 0 0 0 0 0 0 0 0 0 0 0 0 0 0 0 0 0 0 0 0
22 27 44 58 51 4 0 0 0 4 2 0 0 0 0 6 0 0 0 2 0 0 0 0 0 0 0 0 0 0 0 0 0 0 0 0 0 0 0 0 0 0 0 0 0
20 37 54 63 20 0 0 0 0 0 31 0 0 6 2 33 9 0 0 4 9 0 0 0 0 0 0 0 0 0 0 0 0 0 0 0 0 0 0 0 0 0 0 0 0
10 32 38 33 20 5 0 0 0 1 1 0 103 53 0 2 0 0 1 0 3 0 0 0 0 0 0 0 0 0 0 0 0 0 0 0 0 0 0 0 0 0 0 0 0
6 22 19 0 0 0 0 0 0 25 0 0 44 35 7 7 1 2 21 3 4 10 0 0 0 0 0 0 0 0 0 0 0 0 0 0 0 0 0 0 0 0 0 0 0
7 10 4 0 0 0 0 0 5 1 0 0 18 27 16 5 2 0 38 19 70 31 15 0 0 0 0 0 0 0 0 0 0 0 0 0 0 0 0 0 0 0 0 0 0
5 0 0 0 0 0 0 2 2 0 0 0 0 0 17 11 0 0 1 17 51 0 0 0 0 0 0 0 0 0 0 0 0 0 0 0 0 0 0 0 0 0 0 0 0
0 0 0 0 2 0 0 0 0 0 0 0 1 13 53 34 0 0 0 31 10 0 0 0 0 0 0 0 0 0 0 0 0 0 0 0 0 0 0 0 0 0 0 0 0
1 0 0 0 0 4 6 1 0 2 2 6 53 14 5 3 6 3 13 1 23 0 0 0 0 0 0 0 0 0 0 0 0 0 0 0 0 0 0 0 0 0 0 3 129
0 0 0 0 1 18 9 29 14 5 13 43 32 6 20 7 3 2 8 1 2 1 0 0 0 0 0 0 0 0 0 0 0 0 0 0 0 0 0 0 0 0 44 364 319
1 0 0 0 1 9 5 25 13 8 17 22 19 21 12 19 2 3 6 15 0 3 0 0 0 0 0 0 0 0 0 0 0 0 0 0 0 0 0 14 0 247 436 323 114
0 0 0 0 1 0 13 13 21 16 8 6 5 10 10 6 0 0 39 37 1 0 0 0 0 0 0 0 0 0 0 0 0 0 0 0 0 0 0 50 0 387 332 65 0
0 0 0 0 3 9 10 11 15 1 9 19 16 4 3 5 2 1 70 119 51 0 83 16 0 0 0 0 0 0 0 0 0 0 0 0 0 0 0 26 2 0 100 0 0
0 1 16 4 0 5 11 10 15 16 5 16 9 17 16 17 3 1 36 64 4 344 0 0 0 12 0 2 0 0 0 0 0 0 0 1 0 0 0 0 0 0 0 0 0
0 4 11 4 3 3 6 5 9 9 7 12 15 20 8 2 7 2 0 0 0 0 15 0 31 14 8 2 37 29 26 42 19 20 35 58 2 0 0 1 1 0 0 0 0
0 1 5 1 0 2 1 5 10 13 1 0 5 13 6 4 5 0 0 0 0 0 8 9 0 0 14 0 2 16 6 73 118 84 63 44 0 0 26 50 0 0 0 0 0

GFSSW_con_sbcape_138.txt.gz
CAPE
42 50 34 27 27 28 31 29 21 14 11 16 38 35 28 29 34 1 0 0 0 0 0 0 0 0 0 0 0 0 0 0 0 0 0 0 0 0 0 0 0 140 164 831 1051
11 12 33 45 41 46 43 42 34 28 17 9 21 44 31 33 3 0 0 0 0 0 0 0 0 0 0 0 0 0 0 0 0 0 0 0 0 0 0 0 0 198 466 510 840
4 7 13 16 16 31 29 44 43 38 31 26 25 29 50 25 1 0 0 3 2 0 0 0 0 0 0 0 0 0 0 0 0 0 0 0 0 0 0 0 0 112 357 294 509
5 7 7 11 16 18 27 35 40 48 44 40 32 18 47 24 0 0 0 0 0 0 0 0 0 0 0 0 0 0 0 0 0 0 0 0 0 0 0 0 0 0 306 350 268
8 9 9 6 13 13 21 27 22 17 37 63 54 28 30 26 0 0 0 0 0 0 0 0 0 0 0 0 0 0 0 0 0 0 0 0 0 0 0 0 0 0 183 310 242
13 9 8 6 14 13 12 32 27 21 19 12 73 71 45 12 0 0 0 0 0 0 0 0 0 0 0 0 0 0 0 0 0 0 0 0 0 0 0 0 0 0 22 62 22
55 33 31 34 25 24 17 33 30 18 14 17 13 81 48 18 0 0 0 0 0 0 0 0 0 0 0 0 0 0 0 0 0 0 0 0 0 0 0 0 0 0 0 0 0
48 51 20 17 20 25 25 29 17 9 15 14 17 39 22 0 0 0 0 0 0 0 0 0 0 0 0 0 0 0 0 0 0 0 0 0 0 0 0 0 0 0 0 0 0
30 34 20 25 25 27 35 38 22 16 27 22 20 37 5 0 0 0 0 0 0 0 0 0 0 0 0 0 0 0 0 0 0 0 0 0 0 0 0 0 0 0 0 0 0
15 30 49 35 37 47 51 43 1 2 0 4 26 23 0 0 0 0 0 0 0 0 0 0 0 0 0 0 0 0 0 0 0 0 0 0 0 0 0 0 0 0 0 0 0
21 40 48 51 63 69 45 0 0 0 1 0 0 0 0 0 0 0 0 0 6 0 0 0 0 0 0 0 0 0 0 0 0 0 0 0 0 0 0 0 0 0 0 0 0
20 40 54 57 60 54 12 5 0 12 16 0 0 0 0 0 0 0 6 3 2 1 3 0 1 0 0 0 0 0 0 0 0 0 0 0 0 0 0 0 0 0 0 0 0
30 42 36 42 31 1 0 0 0 0 13 0 0 0 0 0 3 0 0 26 0 3 9 0 0 0 0 0 0 0 0 0 0 0 0 0 0 0 0 0 0 0 0 0 0
29 28 35 31 1 0 0 0 0 0 0 0 0 0 0 0 2 0 0 2 26 0 3 11 0 0 0 0 0 0 0 0 0 0 0 0 0 0 0 0 0 0 0 0 0
19 26 26 21 6 4 0 0 0 0 0 0 8 29 2 0 0 2 0 0 22 0 45 13 0 0 0 0 0 0 0 0 0 0 0 0 0 0 0 0 0 0 0 0 0
17 21 17 1 0 0 0 0 0 3 0 0 46 31 13 12 1 0 0 0 0 16 26 31 0 0 0 0 0 0 0 0 0 0 0 0 0 0 0 0 0 0 0 0 0
12 12 1 0 0 0 0 0 5 1 0 0 5 1 1 2 8 13 25 2 86 67 89 62 0 0 0 0 0 0 0 0 0 0 0 0 0 0 0 0 0 0 0 0 0
8 2 0 0 0 0 2 4 0 0 0 0 0 0 4 4 4 8 22 23 18 13 27 13 1 0 0 0 0 0 0 0 0 0 0 0 0 0 0 0 0 0 0 0 0
0 0 0 0 0 1 4 1 0 0 0 17 3 18 11 23 33 32 6 0 8 19 25 5 0 0 0 0 0 0 0 0 0 0 0 0 0 0 0 0 0 0 0 0 0
0 0 0 0 0 1 8 2 1 6 17 12 20 25 5 11 4 19 33 1 23 13 0 0 0 0 0 0 0 0 0 0 0 0 0 0 0 0 0 0 0 0 0 2 105
0 0 0 0 0 12 10 20 15 10 23 10 9 15 13 35 12 2 9 5 33 25 4 0 0 0 0 0 0 0 0 0 0 0 0 0 0 0 0 0 0 0 71 256 101
0 0 0 0 0 6 3 20 13 8 16 7 10 13 9 6 3 3 45 28 28 29 7 0 0 0 0 0 0 0 0 0 0 0 0 0 0 0 0 0 1 231 280 141 17
0 0 0 0 1 0 6 4 11 19 18 8 3 7 9 6 1 26 13 52 2 7 0 0 0 0 0 0 0 0 0 0 0 0 0 0 0 0 0 0 270 210 58 65 0
0 0 0 0 4 6 10 13 13 3 10 15 26 3 3 3 0 1 22 86 1 0 53 0 0 0 0 0 0 0 0 0 0 0 0 0 0 0 0 0 83 3 0 0 0
0 0 13 1 0 4 6 3 10 19 8 22 12 27 23 10 13 15 15 3 0 28 0 0 8 0 0 0 0 0 0 0 0 0 0 0 0 0 0 0 0 0 0 0 0
1 2 0 5 1 2 10 4 14 11 23 13 18 26 4 2 7 0 1 0 0 0 1 0 10 0 0 0 0 0 0 0 0 0 0 0 0 0 7 0 0 0 0 0 0
0 0 9 0 0 1 2 5 10 11 3 18 14 18 2 1 0 0 1 0 0 0 0 0 0 0 7 1 7 58 0 4 2 3 0 1 0 1 0 0 0 0 0 0 0

GFSSW_con_sbcape_141.txt.gz
CAPE
6 6 10 9 11 21 34 42 45 39 37 25 20 22 41 40 34 0 0 0 0 0 0 0 0 0 0 0 0 0 0 0 0 0 0 0 0 0 0 0 320 996 1147 1553 1404
6 7 5 6 5 10 13 21 32 40 46 41 31 24 30 43 3 0 0 0 0 0 0 0 0 0 0 0 0 0 0 0 0 0 0 0 0 0 0 0 0 1106 1288 1389 1570
10 13 15 16 12 18 16 19 17 22 39 53 46 36 28 41 0 0 1 1 0 0 0 0 0 0 0 0 0 0 0 0 0 0 0 0 0 0 0 0 0 563 1314 1466 1557
19 11 13 17 18 21 25 22 17 15 10 19 45 51 38 27 0 0 4 0 0 0 3 0 0 0 0 0 0 0 0 0 0 0 0 0 0 0 0 0 0 1075 1231 1401 1515
30 33 28 14 19 16 16 16 23 16 22 19 12 29 57 15 1 0 0 0 0 13 4 0 0 0 0 0 0 0 0 0 0 0 0 0 0 0 0 0 0 867 953 1257 1455
28 21 20 24 22 27 28 31 26 21 22 25 14 14 53 10 0 0 0 0 0 0 10 0 0 0 0 0 0 0 0 0 0 0 0 0 0 0 0 0 0 775 835 734 1194
37 19 20 24 24 26 29 39 35 22 16 10 7 7 29 14 0 0 0 0 0 8 11 2 0 0 0 0 0 0 0 0 0 0 0 0 0 0 0 0 0 76 753 376 564
18 25 23 20 28 33 39 64 45 30 22 28 43 31 8 0 0 0 0 0 0 0 0 0 0 0 0 0 0 0 0 0 0 0 0 0 0 0 0 0 0 0 0 268 251
22 26 24 23 33 42 57 61 44 34 29 25 42 37 5 0 0 0 0 0 0 0 0 0 0 0 0 0 0 0 0 0 0 0 0 0 0 0 0 0 0 0 0 0 29
21 32 38 45 36 50 59 39 1 2 1 2 13 12 0 0 0 0 0 0 0 0 0 0 1 0 0 0 0 0 0 0 0 0 0 0 0 0 0 0 0 0 0 0 0
13 32 44 44 49 35 19 0 0 0 11 0 0 0 0 0 0 14 0 0 6 0 2 0 2 0 0 0 0 0 0 0 0 0 0 0 0 0 0 0 0 0 0 0 0
18 25 35 44 33 15 1 0 1 4 18 1 0 11 0 0 1 58 3 6 3 0 5 7 17 0 0 0 0 0 0 0 0 0 0 0 0 0 0 0 0 0 0 0 0
27 33 31 35 11 1 0 0 1 2 21 0 0 0 0 0 1 1 0 20 4 0 1 2 2 2 0 0 0 0 0 0 0 0 0 0 0 0 0 0 0 0 0 0 0
21 24 28 21 0 0 0 0 0 3 8 0 0 0 0 3 2 0 0 15 26 0 0 3 15 0 0 0 0 0 0 0 0 0 0 0 0 0 0 0 0 0 0 0 0
14 17 20 17 4 2 0 0 0 0 0 0 0 0 3 6 3 29 0 33 47 2 0 2 31 5 0 0 0 0 0 0 0 0 0 0 0 0 0 0 0 0 0 0 0
6 8 9 0 4 0 0 0 0 14 0 0 40 26 32 17 9 20 0 25 76 37 0 13 65 1 0 0 0 0 0 0 0 0 0 0 0 0 0 0 0 0 0 0 0
14 6 0 0 0 0 0 1 11 4 0 0 4 0 26 54 25 10 51 38 14 155 38 68 90 23 0 0 0 0 0 0 0 0 0 0 0 0 0 0 0 0 0 0 0
2 0 0 0 0 3 5 10 3 2 3 0 7 15 31 15 28 39 20 51 33 93 1 49 66 31 0 0 0 0 0 0 0 0 0 0 0 0 0 0 0 0 0 0 0
0 0 0 0 0 3 9 5 2 8 14 41 31 27 28 54 43 55 37 17 0 114 6 107 49 4 0 0 0 0 0 0 0 0 0 0 0 0 0 0 0 0 0 0 0
0 0 0 0 0 10 10 9 6 4 9 21 40 48 82 49 59 15 15 7 5 113 163 104 60 12 0 0 0 0 0 0 0 0 0 0 0 0 0 0 0 0 0 0 0
0 0 0 0 1 16 12 5 5 6 21 11 25 15 14 8 50 53 0 0 65 60 128 33 48 7 0 0 0 0 0 0 0 0 0 0 0 0 6 7 0 0 177 17 18
0 0 0 0 11 13 4 12 6 7 16 3 11 9 4 15 20 34 14 59 1 92 17 1 44 0 0 0 0 0 0 0 0 0 0 0 0 0 11 21 0 268 20 12 7
2 0 0 0 7 0 5 3 9 17 17 9 3 5 9 8 18 2 2 46 0 102 75 1 37 2 1 0 0 0 0 0 0 0 0 0 0 0 54 317 364 102 10 1 1
0 0 0 0 20 8 6 15 12 10 13 18 18 3 5 0 10 4 0 8 0 52 258 34 0 0 0 0 0 0 0 0 0 0 0 0 0 33 206 314 23 36 5 4 2
0 1 21 3 4 5 14 11 16 27 8 14 5 15 13 16 17 15 12 1 34 18 51 1 28 0 0 0 0 0 0 0 0 0 0 0 0 57 121 97 15 2 3 1 0
8 21 12 5 1 2 8 12 14 7 19 8 10 5 4 2 9 19 8 0 3 0 17 8 89 0 0 0 0 0 0 0 0 0 0 0 21 30 69 50 26 0 3 0 0
0 2 21 2 2 13 12 4 5 12 1 20 21 10 7 11 11 3 3 0 1 11 37 20 58 78 0 0 0 0 0 0 0 0 0 4 29 90 42 157 46 8 2 0 0

GFSSW_con_sbcape_144.txt.gz
CAPE
9 10 14 15 15 16 17 12 8 16 26 32 41 35 25 13 20 1 0 0 0 0 0 0 0 0 0 0 0 0 0 0 0 0 0 0 0 0 0 0 16 668 802 1870 1853
15 17 18 19 15 12 16 13 10 13 14 23 45 45 33 20 4 0 0 0 0 0 0 0 0 0 0 0 0 0 0 0 0 0 0 0 0 0 0 0 4 794 1620 1809 1865
22 19 20 19 18 17 18 18 8 11 8 12 12 38 58 9 2 0 0 0 0 0 0 0 0 0 0 0 0 0 0 0 0 0 0 0 0 0 0 0 0 104 1475 1976 2049
22 20 21 19 24 23 19 17 14 14 6 13 21 15 35 38 0 1 0 2 0 0 1 0 0 0 0 0 0 0 0 0 0 0 0 0 0 0 0 0 0 101 1306 1876 2128
17 21 20 18 23 28 24 21 18 16 13 17 24 21 20 40 1 9 49 23 0 0 1 1 0 0 0 0 0 0 0 0 0 0 0 0 0 0 0 0 0 459 1393 1926 2270
19 18 11 15 22 31 43 39 31 17 12 10 16 16 21 21 0 6 1 0 0 0 27 12 0 0 0 0 0 0 0 0 0 0 0 0 0 0 0 0 0 423 809 1198 1880
22 24 19 22 28 36 41 40 39 34 28 26 27 38 30 0 0 0 0 0 0 5 21 26 5 0 0 0 0 0 0 0 0 0 0 0 0 0 0 0 0 290 509 631 1226
21 29 25 26 30 30 44 44 29 32 39 51 54 53 28 0 0 0 0 3 2 0 0 1 38 0 0 0 0 0 0 0 0 0 0 0 0 0 0 0 0 86 255 305 720
22 34 31 28 26 32 39 23 9 29 25 30 52 53 14 0 0 0 0 0 14 1 0 0 28 0 0 0 0 0 0 0 0 0 0 0 0 0 0 0 0 0 0 15 205
31 35 39 32 32 36 22 1 0 0 6 5 21 17 0 0 0 0 6 2 0 1 0 0 25 3 0 0 0 0 0 0 0 0 0 0 0 0 0 0 0 0 0 0 0
23 37 35 41 41 30 15 5 12 9 10 0 0 0 0 0 0 89 2 10 17 1 12 6 37 1 0 0 0 0 0 0 0 0 0 0 0 0 0 0 0 0 0 0 0
18 32 33 31 29 14 8 12 3 1 3 0 0 5 1 10 17 97 0 6 20 0 14 1 26 6 2 0 0 0 0 0 0 0 0 0 0 0 0 0 0 0 0 0 0
23 24 23 24 15 3 3 0 2 6 11 0 0 0 2 12 15 37 113 44 14 19 31 39 8 23 5 0 0 0 0 0 0 0 0 0 0 0 0 0 0 0 0 0 0
16 22 20 16 0 0 23 6 0 3 19 0 0 0 0 3 6 1 17 26 90 17 12 44 33 10 22 0 0 0 0 0 0 0 0 0 0 0 0 0 0 0 0 0 0
7 25 17 11 1 20 5 0 0 24 22 0 0 3 14 17 56 82 2 8 45 65 53 32 62 23 14 0 0 0 0 0 0 0 0 0 0 0 0 0 0 0 0 0 0
14 14 4 3 5 33 0 0 4 42 13 0 12 22 29 37 16 25 22 16 26 70 25 54 46 52 29 0 0 0 0 0 0 0 0 0 0 0 0 0 0 0 0 0 0
8 4 0 0 25 16 0 2 51 10 1 14 17 31 42 24 38 38 33 41 108 139 82 42 107 84 17 7 0 1 0 0 0 0 0 0 0 0 0 0 0 0 0 0 0
1 0 0 2 16 22 7 12 15 6 10 8 23 27 33 28 13 34 23 69 119 171 108 70 102 135 33 0 0 0 0 0 0 0 0 0 0 0 0 0 0 0 0 0 0
0 0 1 0 10 12 12 23 21 9 18 37 11 49 116 52 35 32 40 43 58 128 105 61 99 114 2 0 0 0 0 0 0 0 0 0 0 0 0 0 0 0 0 0 0
0 0 0 0 5 4 11 11 11 3 9 17 35 65 210 45 115 226 30 3 52 6 180 89 117 93 32 4 0 0 0 0 0 0 0 0 0 0 0 0 0 0 0 0 0
0 2 0 0 7 41 22 14 9 9 26 11 33 65 45 69 84 87 111 30 7 0 49 26 67 74 72 32 0 0 0 0 1 0 0 0 0 0 4 0 1 413 362 338 41
0 3 0 10 9 18 15 11 8 16 20 2 8 10 37 18 79 87 7 0 0 24 37 12 196 81 0 0 0 0 0 0 0 0 4 0 13 6 2 56 546 112 27 14 79
0 0 0 11 14 14 6 6 14 20 15 16 6 6 13 35 42 47 93 85 2 34 59 146 216 123 46 38 10 0 0 0 8 1 1 0 0 22 349 551 312 14 15 64 133
0 0 1 16 14 15 14 11 18 9 9 20 20 10 22 24 26 39 21 59 11 89 18 42 191 6 0 0 0 0 0 0 7 9 0 1 2 202 625 312 33 16 22 31 11
0 1 10 15 16 20 15 13 10 16 8 18 11 11 35 4 2 3 29 32 11 80 218 249 246 74 28 5 0 0 0 0 3 0 2 0 7 191 669 80 39 14 26 46 6
1 23 13 11 10 22 16 17 23 16 17 15 14 11 25 21 22 11 36 85 95 142 295 351 181 63 10 0 1 1 0 0 0 0 0 0 141 394 573 74 45 18 18 43 75
13 15 19 2 10 22 26 21 23 28 3 13 10 28 13 22 7 14 46 38 61 40 101 329 204 78 5 0 0 0 0 0 0 0 0 0 132 524 460 62 81 59 36 72 31

GFSSW_con_sbcape_147.txt.gz
CAPE
16 20 17 17 16 8 8 9 9 10 10 8 7 10 25 33 7 0 0 0 0 0 0 0 0 0 0 0 0 0 0 0 0 0 0 0 7 0 0 0 0 252 1159 2374 2107
14 11 13 14 17 19 17 14 16 8 5 8 10 9 12 19 22 0 0 0 0 0 0 0 0 0 0 0 0 0 0 0 0 0 0 0 0 0 0 0 0 579 1260 1583 1900
19 15 18 17 18 19 15 9 14 11 9 11 12 14 2 0 4 0 0 0 0 0 0 0 0 0 0 0 0 0 0 0 0 0 0 0 0 0 0 0 0 464 1494 1481 1991
22 21 15 17 17 19 21 22 17 21 15 8 6 6 5 13 0 28 0 0 0 0 0 0 0 0 0 0 0 0 0 0 0 0 0 0 0 0 0 0 2 3 1358 1540 1871
17 18 15 17 20 26 22 24 25 26 26 19 6 7 7 1 0 21 36 32 14 1 0 0 0 0 0 0 0 0 0 0 0 0 0 0 0 0 0 0 0 6 931 1489 1843
14 17 18 21 26 32 39 44 41 29 32 31 23 23 15 4 0 0 0 3 2 7 1 8 0 0 0 0 0 0 0 0 0 0 0 0 0 0 0 0 0 12 737 1236 1755
26 26 30 32 26 28 35 34 29 37 30 41 48 62 28 0 0 1 0 0 5 6 13 23 1 0 0 0 0 0 0 0 0 0 0 0 0 0 0 0 0 8 476 656 1420
23 32 39 32 26 24 33 32 24 19 27 50 56 53 28 0 0 0 0 6 3 23 3 1 5 24 0 0 0 0 0 0 0 0 0 0 0 0 0 0 0 0 340 510 760
24 33 37 34 26 22 32 14 4 9 16 26 52 55 22 2 0 0 0 0 2 29 1 0 0 18 0 0 0 0 0 0 0 0 0 0 0 0 0 0 0 0 151 381 589
24 25 29 37 24 22 19 0 0 0 7 10 23 12 0 0 1 0 10 7 5 25 38 16 5 61 6 0 0 0 0 0 0 0 0 0 0 0 0 0 0 0 70 227 337
17 26 28 32 32 21 6 13 3 4 8 13 12 0 0 1 0 14 131 67 19 47 64 50 35 42 0 0 0 0 0 0 0 0 0 0 0 0 0 0 0 0 2 0 11
24 31 30 27 18 7 1 11 8 3 6 1 1 1 3 15 17 24 116 136 71 11 32 86 56 7 12 2 0 0 0 0 0 0 0 0 0 0 0 0 0 0 3 0 0
24 27 25 18 11 0 20 8 0 1 17 0 0 0 0 11 24 28 50 195 103 69 62 69 17 21 29 10 0 0 1 0 0 0 0 0 0 0 0 0 0 0 0 0 0
17 18 14 3 0 19 0 8 0 6 23 0 3 12 6 10 13 12 45 174 175 136 33 31 38 23 29 21 2 0 0 0 0 0 0 0 0 0 0 0 0 0 0 0 0
14 11 5 2 22 10 12 7 0 19 24 0 2 10 20 6 40 4 20 112 59 160 45 39 61 57 86 12 9 0 0 0 0 0 0 0 0 0 0 0 0 0 0 0 0
13 8 0 4 6 4 16 0 3 28 42 9 18 15 17 14 1 75 111 29 82 20 193 54 76 120 89 17 5 2 1 0 0 0 0 0 0 0 0 0 0 0 0 0 0
7 0 0 3 20 5 0 1 21 68 2 45 39 39 50 97 23 13 25 21 73 62 187 25 83 112 43 29 0 7 18 10 5 3 0 0 0 29 0 0 0 0 0 0 0
0 0 2 16 12 1 0 14 31 18 31 28 20 17 32 16 30 14 79 41 11 65 135 101 70 106 109 46 3 12 4 1 0 0 0 5 0 0 0 0 0 0 0 0 0
0 0 26 2 26 8 9 43 45 9 10 22 7 40 95 28 29 38 120 56 29 107 108 96 94 77 145 24 6 11 13 0 9 4 10 4 3 0 0 0 0 0 0 0 0
0 6 8 1 15 22 8 16 13 3 9 13 41 32 67 73 139 42 24 9 77 69 108 105 135 4 49 54 6 9 0 9 3 54 25 23 2 0 0 0 0 0 0 0 0
0 46 0 16 25 30 27 27 13 23 34 6 27 18 66 127 126 64 36 18 117 18 5 323 162 167 90 19 8 1 0 2 2 19 36 11 8 2 0 0 4 25 32 536 509
0 6 0 14 21 18 43 9 6 16 15 4 8 11 21 174 132 149 179 161 78 42 147 233 123 189 79 0 0 0 0 5 28 30 35 33 80 3 33 56 476 625 688 191 335
0 2 7 25 30 28 16 12 14 18 18 13 8 7 19 65 114 199 157 11 15 61 241 70 132 311 105 21 4 8 6 0 0 28 42 68 100 82 707 729 355 171 60 265 347
0 0 0 16 14 15 24 16 18 9 16 19 16 12 18 63 117 130 143 25 35 101 30 13 173 296 76 7 12 12 5 1 15 24 12 50 40 127 561 78 34 138 631 618 537
0 0 2 2 19 8 28 17 11 36 12 15 4 27 16 4 5 107 92 46 64 105 50 25 296 242 29 7 5 3 0 1 29 12 18 58 47 609 585 86 124 224 269 95 16
0 6 5 5 19 14 17 31 25 24 16 5 13 27 15 12 105 135 162 70 76 25 13 547 396 179 96 52 14 8 1 10 2 0 51 15 233 816 272 129 187 77 138 129 29
9 7 12 3 23 35 50 33 35 23 1 2 5 14 7 15 15 175 306 188 275 230 435 278 285 185 156 69 16 19 6 3 1 0 47 119 587 548 136 177 194 165 121 53 8